Retour au catalogue

COSMOS 2251 DEB

ActifLEO
NORAD 37499·DEBRIS·🇷🇺 Russia

Lancé Jun 16, 1993 depuis Plesetsk Cosmodrome

Loading…

Prochains Passages (prochaines 24 heures)

TLE

FraisSource: Space-Track

Époque: Sep 13, 2026, 18:53 UTC

1 37499U 93036BMC 26256.78734906  .00000213  00000-0  84231-4 0  9996
2 37499  74.0384 178.5670 0028256 192.4331 167.6127 14.34546084890938

Suivez COSMOS 2251 DEB en temps réel avec AllMySat

Download on the App Store